Location: New Frontier Mobile Home Park
(32.8448°N, 116.9675°W)
Time: 22:47:17
(UTC+00:00)

NPP - Pass Details

Date: 14 July 2020
Orbit: 826 x 828 km, 98.7° (Epoch: 05 August)

Event Time Altitude Azimuth Distance (km) Brightness Sun altitude
Rises 09:49:12 0° 7° (N) 3,368 7.8 -29.0°
Reaches altitude 10° 09:51:35 10° 3° (N) 2,431 6.8 -28.8°
Enters shadow 09:56:19 53° 310° (NW) 1,004 4.0 -28.2°
